SL-16 DEB, 22357

Orbit data source: Space-Track

SL-16 DEB, 22357 is space debris in LEO originally from a launch on Fri, 25 Dec 1992 UTC launched from the Tyuratam Missile And Space Complex (TTMTR). Debris objects in space refer to the collection of defunct objects orbiting the Earth. Examples of debris include non-operational satellites, rocket bodies, and fragments generated from explosions, collisions, or faulty payload assembly.

Loading next visibility...
Identifier
22357, 1992-093AW
Orbit
LEO
Country
Flag of CISCIS
Related business
Manufacturer
Unknown
Mission
Spacecraft
Bus & Motor
Unknown
Mass
Unknown
Launch date (UTC)
1992-12-25 (33 years ago)
Launch vehicle
Unknown
Launch site
Tyuratam Missile And Space Complex (TTMTR)
Object type
Payload
Rocket body
Debris
Shape & HBR
Unknown shape, 0.1 m
Radar Cross Section
Small (<0.1 m²)

Expand to show TLE details & history
Last TLE update: 2 days ago

TLE from 2 days ago
0 SL-16 DEB
1 22357U 92093AW  25296.02724845  .00115079  00000-0  24368-2 0  9996
2 22357  70.8395 106.1779 0021343 267.9023  91.9722 15.44330732734417
Epoch: 2025-10-23T00:39Z
TLE epoch observation values (Epoch: 2025-10-23T00:39:14.266Z)
Latitude
0.00002°
Longitude
64.67606°
Altitude
436.41 km
Speed
7.65 km/s
True Right ascension
07h 04m 42s
True Declination
0° 00' 00"
Sunlit
Object was in daylight at epoch
Visualization orbit readout
Latitude
Unknown
Longitude
Unknown
Altitude
Unknown
Speed
Unknown
Apparent Right ascension
Unknown
Apparent Declination
Unknown
Sunlit
N/A
Visualization observer readout
Local Sidereal Time
12:38:38
Azimuth
Unknown
Elevation
Unknown
Doppler factor
Unknown
Orbital elements
Apogee altitude
445.695 km
Perigee altitude
416.629 km
Semi-major axis
6,809.299 km
Eccentricity
0.00213
Inclination
70.8395°
RAAN
106.1779°
Arg. of periapsis
267.9023°
True anomaly
92.2166°
Mean anomaly
91.9722°
Eccentric anomaly
92.0944°
Mean motion
3.86269 °/min
Orbital period
93.2 mins
BSTAR
0.0024368
Loading maneuver chart data...
Computing Atmospheric mass density...

Documentation

Showing up to 5 results
|